Orbital Elements at Epoch 2459200.5 (2020-Dec-17.0) TDB
Reference: JPL 31 (heliocentric ecliptic J2000)
Element | Value | Uncertainty (1-sigma) | Units |
e | .1227577692775308 | 3.7448e-08 | |
a | 3.141814539398148 | 1.9819e-08 | au |
q | 2.756132395057919 | 1.1588e-07 | au |
i | 19.22271774698553 | 4.3416e-06 | deg |
node | 93.71887756240724 | 1.2306e-05 | deg |
peri | 149.5818211214103 | 2.2702e-05 | deg |
M | 93.97644068761939 | 1.7207e-05 | deg |
tp | 2458669.510740999100 (2019-Jul-05.01074100) | 9.7774e-05 | TDB |
period | 2034.085690430997 5.57 | 1.9247e-05 5.27e-08 | d yr |
n | .1769836942925057 | 1.6747e-09 | deg/d |
Q | 3.527496683738378 | 2.2252e-08 | au |
|
| | Orbit Determination Parameters
Additional Information
|